BTY246 LEVT-LPPT

Flight info

Callsign BTY246
Flight time 1h 17m
Altitude 35000
Route NEA DCT ARDID DCT INBOM
Aircraft A320/M-SDE3FGHIRWY/LB1

Departure

Time 2026-05-07 19:04
Airport Vitoria Airport (LEVT)

Arrival

Time 2026-05-07 20:21
Airport Lisbon Humberto Delgado Airport (LPPT)
Time Latitude Longitude Altitude Speed Heading
2026-05-07 18:46 42.88423 -2.72964 1677 ft 0 kts 347°
2026-05-07 18:58 42.88426 -2.72960 1683 ft 1 kts 31°
2026-05-07 18:58 42.88425 -2.72945 1680 ft 4 kts 97°
2026-05-07 18:58 42.88413 -2.72922 1677 ft 2 kts 139°
2026-05-07 18:59 42.88404 -2.72918 1677 ft 1 kts 170°
2026-05-07 18:59 42.88352 -2.72947 1682 ft 15 kts 211°
2026-05-07 18:59 42.88265 -2.72926 1681 ft 15 kts 127°
2026-05-07 18:59 42.88237 -2.72807 1677 ft 13 kts 49°
2026-05-07 19:00 42.88308 -2.72728 1677 ft 15 kts 37°
2026-05-07 19:00 42.88402 -2.72631 1684 ft 19 kts 35°
2026-05-07 19:00 42.88526 -2.72510 1682 ft 24 kts 36°
2026-05-07 19:00 42.88673 -2.72366 1679 ft 28 kts 36°
2026-05-07 19:01 42.88832 -2.72210 1677 ft 29 kts 36°
2026-05-07 19:01 42.88996 -2.72050 1677 ft 29 kts 36°
2026-05-07 19:01 42.89165 -2.71885 1685 ft 30 kts 36°
2026-05-07 19:01 42.89338 -2.71715 1683 ft 31 kts 36°
2026-05-07 19:02 42.89503 -2.71551 1680 ft 18 kts 33°
2026-05-07 19:02 42.89602 -2.71456 1680 ft 16 kts 35°
2026-05-07 19:02 42.89629 -2.71349 1686 ft 12 kts 121°
2026-05-07 19:02 42.89582 -2.71266 1685 ft 10 kts 135°
2026-05-07 19:03 42.89498 -2.71255 1686 ft 19 kts 208°
2026-05-07 19:03 42.89206 -2.71537 1686 ft 87 kts 216°
2026-05-07 19:03 42.88543 -2.72186 1682 ft 145 kts 216°
2026-05-07 19:03 42.87650 -2.73069 2090 ft 159 kts 216°
2026-05-07 19:04 42.86743 -2.73918 2877 ft 157 kts 213°
2026-05-07 19:04 42.85843 -2.74759 3596 ft 158 kts 213°
2026-05-07 19:04 42.84887 -2.75656 3926 ft 177 kts 213°
2026-05-07 19:04 42.83805 -2.76655 4183 ft 199 kts 213°
2026-05-07 19:05 42.82599 -2.77767 4486 ft 216 kts 213°
2026-05-07 19:05 42.81341 -2.78933 5067 ft 221 kts 213°
2026-05-07 19:05 42.80068 -2.80115 5831 ft 222 kts 213°
2026-05-07 19:05 42.78786 -2.81308 6533 ft 225 kts 213°
2026-05-07 19:06 42.77486 -2.82519 7240 ft 228 kts 213°
2026-05-07 19:06 42.74847 -2.84987 8679 ft 233 kts 214°
2026-05-07 19:06 42.73532 -2.86253 9406 ft 235 kts 219°
2026-05-07 19:07 42.72422 -2.87902 10093 ft 239 kts 232°
2026-05-07 19:07 42.71423 -2.89720 10717 ft 242 kts 232°
2026-05-07 19:07 42.70410 -2.91554 11360 ft 243 kts 232°
2026-05-07 19:07 42.69388 -2.93394 12064 ft 245 kts 232°
2026-05-07 19:08 42.68356 -2.95251 12759 ft 247 kts 232°
2026-05-07 19:08 42.67315 -2.97123 13446 ft 250 kts 232°
2026-05-07 19:08 42.66263 -2.99011 14083 ft 252 kts 232°
2026-05-07 19:08 42.65202 -3.00914 14702 ft 254 kts 232°
2026-05-07 19:09 42.64134 -3.02831 15326 ft 255 kts 232°
2026-05-07 19:09 42.63058 -3.04758 15937 ft 257 kts 232°
2026-05-07 19:09 42.61975 -3.06694 16569 ft 258 kts 233°
2026-05-07 19:09 42.60887 -3.08636 17198 ft 259 kts 233°
2026-05-07 19:10 42.59793 -3.10594 17803 ft 261 kts 233°
2026-05-07 19:10 42.58692 -3.12569 18384 ft 263 kts 233°
2026-05-07 19:10 42.57585 -3.14555 18911 ft 265 kts 233°
2026-05-07 19:10 42.56468 -3.16553 19435 ft 266 kts 233°
2026-05-07 19:11 42.55343 -3.18561 19952 ft 268 kts 233°
2026-05-07 19:11 42.54211 -3.20582 20469 ft 270 kts 233°
2026-05-07 19:11 42.53068 -3.22619 20960 ft 272 kts 233°
2026-05-07 19:11 42.51919 -3.24666 21486 ft 274 kts 233°
2026-05-07 19:12 42.50758 -3.26733 21993 ft 276 kts 233°
2026-05-07 19:12 42.49591 -3.28809 22494 ft 278 kts 233°
2026-05-07 19:12 42.48413 -3.30899 22994 ft 280 kts 233°
2026-05-07 19:12 42.47226 -3.33000 23487 ft 282 kts 233°
2026-05-07 19:13 42.46032 -3.35118 23893 ft 284 kts 233°
2026-05-07 19:13 42.44831 -3.37250 24303 ft 286 kts 233°
2026-05-07 19:13 42.43637 -3.39365 24701 ft 287 kts 234°
2026-05-07 19:13 42.42420 -3.41516 25101 ft 289 kts 234°
2026-05-07 19:14 42.41196 -3.43681 25497 ft 290 kts 236°
2026-05-07 19:14 42.39963 -3.45863 25855 ft 293 kts 235°
2026-05-07 19:14 42.38718 -3.48063 26223 ft 296 kts 236°
2026-05-07 19:14 42.37464 -3.50279 26603 ft 298 kts 236°
2026-05-07 19:15 42.36196 -3.52515 26856 ft 304 kts 236°
2026-05-07 19:15 42.34887 -3.54828 26970 ft 315 kts 236°
2026-05-07 19:15 42.33532 -3.57221 27105 ft 326 kts 237°
2026-05-07 19:15 42.32130 -3.59696 27240 ft 337 kts 236°
2026-05-07 19:16 42.30680 -3.62248 27362 ft 348 kts 236°
2026-05-07 19:16 42.29184 -3.64876 27519 ft 358 kts 236°
2026-05-07 19:16 42.27643 -3.67579 27640 ft 368 kts 236°
2026-05-07 19:16 42.26062 -3.70352 27779 ft 377 kts 236°
2026-05-07 19:17 42.24442 -3.73197 27912 ft 386 kts 236°
2026-05-07 19:17 42.22787 -3.76102 28029 ft 395 kts 236°
2026-05-07 19:17 42.21094 -3.79069 28171 ft 403 kts 236°
2026-05-07 19:17 42.19366 -3.82084 28344 ft 409 kts 236°
2026-05-07 19:18 42.17614 -3.85130 28637 ft 413 kts 237°
2026-05-07 19:18 42.15850 -3.88194 28974 ft 415 kts 237°
2026-05-07 19:18 42.14079 -3.91275 29324 ft 417 kts 237°
2026-05-07 19:18 42.12301 -3.94371 29654 ft 418 kts 238°
2026-05-07 19:19 42.10515 -3.97469 30023 ft 419 kts 238°
2026-05-07 19:19 42.08724 -4.00571 30326 ft 420 kts 238°
2026-05-07 19:19 42.06929 -4.03676 30624 ft 421 kts 238°
2026-05-07 19:19 42.05132 -4.06787 30925 ft 421 kts 238°
2026-05-07 19:20 42.03348 -4.09915 31209 ft 420 kts 241°
2026-05-07 19:20 42.01866 -4.13255 31564 ft 412 kts 249°
2026-05-07 19:20 42.00576 -4.16681 31992 ft 409 kts 249°
2026-05-07 19:20 41.99285 -4.20078 32430 ft 406 kts 249°
2026-05-07 19:21 41.97999 -4.23445 32872 ft 404 kts 249°
2026-05-07 19:21 41.96734 -4.26756 33296 ft 401 kts 249°
2026-05-07 19:21 41.95463 -4.30082 33743 ft 398 kts 249°
2026-05-07 19:21 41.94202 -4.33388 34125 ft 396 kts 249°
2026-05-07 19:22 41.92951 -4.36672 34412 ft 395 kts 249°
2026-05-07 19:22 41.91698 -4.39955 34661 ft 395 kts 249°
2026-05-07 19:22 41.90442 -4.43247 34862 ft 397 kts 248°
2026-05-07 19:22 41.89193 -4.46518 34917 ft 396 kts 249°
2026-05-07 19:23 41.86666 -4.53109 34931 ft 395 kts 249°
2026-05-07 19:23 41.84158 -4.59632 34919 ft 394 kts 248°
2026-05-07 19:24 41.81643 -4.66172 34933 ft 400 kts 248°
2026-05-07 19:24 41.79053 -4.72889 34948 ft 411 kts 248°
2026-05-07 19:25 41.76399 -4.79730 34950 ft 415 kts 248°
2026-05-07 19:25 41.73725 -4.86586 34948 ft 415 kts 248°
2026-05-07 19:26 41.71054 -4.93447 34945 ft 415 kts 248°
2026-05-07 19:26 41.68390 -5.00294 34948 ft 415 kts 247°
2026-05-07 19:27 41.65721 -5.07128 34927 ft 414 kts 247°
2026-05-07 19:27 41.63053 -5.13942 34934 ft 413 kts 247°
2026-05-07 19:28 41.60385 -5.20741 34927 ft 413 kts 247°
2026-05-07 19:28 41.57710 -5.27539 34920 ft 413 kts 247°
2026-05-07 19:29 41.55026 -5.34325 34893 ft 413 kts 246°
2026-05-07 19:29 41.52343 -5.41124 34908 ft 414 kts 246°
2026-05-07 19:30 41.49647 -5.47928 34911 ft 415 kts 246°
2026-05-07 19:30 41.46942 -5.54718 34905 ft 415 kts 246°
2026-05-07 19:31 41.44234 -5.61509 34906 ft 415 kts 246°
2026-05-07 19:31 41.41526 -5.68294 34891 ft 415 kts 246°
2026-05-07 19:32 41.38811 -5.75071 34904 ft 415 kts 245°
2026-05-07 19:32 41.36096 -5.81846 34898 ft 415 kts 245°
2026-05-07 19:33 41.33383 -5.88616 34898 ft 415 kts 245°
2026-05-07 19:33 41.30658 -5.95375 34896 ft 415 kts 245°
2026-05-07 19:34 41.27928 -6.02130 34896 ft 415 kts 245°
2026-05-07 19:34 41.25194 -6.08880 34881 ft 415 kts 245°
2026-05-07 19:35 41.22461 -6.15622 34893 ft 414 kts 245°
2026-05-07 19:35 41.19721 -6.22354 34893 ft 414 kts 244°
2026-05-07 19:36 41.16887 -6.29005 34880 ft 417 kts 238°
2026-05-07 19:36 41.13423 -6.35192 34886 ft 418 kts 237°
2026-05-07 19:37 41.09965 -6.41319 34896 ft 418 kts 237°
2026-05-07 19:37 41.06486 -6.47488 34888 ft 417 kts 236°
2026-05-07 19:38 41.03005 -6.53634 34885 ft 416 kts 236°
2026-05-07 19:38 40.99527 -6.59764 34898 ft 416 kts 236°
2026-05-07 19:39 40.96052 -6.65891 34885 ft 416 kts 236°
2026-05-07 19:39 40.93165 -6.70983 34877 ft 416 kts 236°
2026-05-07 19:40 40.89098 -6.78132 34888 ft 416 kts 236°
2026-05-07 19:40 40.85610 -6.84238 34895 ft 416 kts 236°
2026-05-07 19:41 40.82127 -6.90321 34899 ft 415 kts 235°
2026-05-07 19:41 40.78645 -6.96390 34896 ft 415 kts 235°
2026-05-07 19:42 40.75163 -7.02450 34897 ft 415 kts 235°
2026-05-07 19:42 40.71677 -7.08508 34896 ft 414 kts 235°
2026-05-07 19:43 40.68194 -7.14552 34893 ft 414 kts 236°
2026-05-07 19:43 40.64710 -7.20593 34901 ft 414 kts 236°
2026-05-07 19:44 40.61814 -7.25607 34902 ft 414 kts 235°
2026-05-07 19:44 40.58316 -7.31628 34910 ft 414 kts 234°
2026-05-07 19:45 40.54814 -7.37639 34912 ft 414 kts 234°
2026-05-07 19:45 40.51316 -7.43648 34913 ft 414 kts 234°
2026-05-07 19:46 40.49572 -7.46643 34678 ft 412 kts 235°
2026-05-07 19:46 40.47826 -7.49638 33832 ft 414 kts 234°
2026-05-07 19:46 40.46067 -7.52656 32958 ft 417 kts 234°
2026-05-07 19:46 40.44288 -7.55696 32715 ft 423 kts 234°
2026-05-07 19:47 40.42486 -7.58772 32458 ft 427 kts 234°
2026-05-07 19:47 40.40670 -7.61869 32213 ft 429 kts 234°
2026-05-07 19:47 40.38852 -7.64975 31983 ft 430 kts 234°
2026-05-07 19:47 40.37027 -7.68090 31783 ft 431 kts 234°
2026-05-07 19:48 40.35193 -7.71209 31469 ft 433 kts 233°
2026-05-07 19:48 40.33353 -7.74336 31109 ft 434 kts 233°
2026-05-07 19:48 40.31504 -7.77478 30777 ft 436 kts 233°
2026-05-07 19:48 40.29647 -7.80628 30431 ft 438 kts 233°
2026-05-07 19:49 40.27782 -7.83786 30088 ft 440 kts 233°
2026-05-07 19:49 40.25909 -7.86962 29706 ft 441 kts 233°
2026-05-07 19:49 40.24026 -7.90145 29332 ft 443 kts 233°
2026-05-07 19:49 40.22136 -7.93335 28939 ft 444 kts 233°
2026-05-07 19:50 40.20241 -7.96535 28559 ft 446 kts 233°
2026-05-07 19:50 40.18344 -7.99739 28176 ft 446 kts 232°
2026-05-07 19:50 40.16441 -8.02950 27806 ft 447 kts 232°
2026-05-07 19:50 40.14537 -8.06159 27444 ft 448 kts 232°
2026-05-07 19:51 40.12625 -8.09379 27082 ft 449 kts 232°
2026-05-07 19:51 40.10707 -8.12601 26723 ft 449 kts 232°
2026-05-07 19:51 40.08789 -8.15819 26371 ft 450 kts 232°
2026-05-07 19:51 40.06859 -8.19051 26027 ft 451 kts 232°
2026-05-07 19:52 40.04927 -8.22282 25687 ft 452 kts 232°
2026-05-07 19:52 40.02983 -8.25520 25343 ft 453 kts 231°
2026-05-07 19:52 40.00719 -8.28368 25011 ft 454 kts 216°
2026-05-07 19:52 39.97915 -8.30258 24681 ft 458 kts 200°
2026-05-07 19:53 39.94775 -8.31080 24344 ft 463 kts 189°
2026-05-07 19:53 39.91570 -8.31580 24019 ft 465 kts 189°
2026-05-07 19:53 39.88352 -8.32061 23700 ft 466 kts 189°
2026-05-07 19:53 39.85134 -8.32534 23358 ft 465 kts 189°
2026-05-07 19:54 39.81931 -8.33007 22976 ft 462 kts 189°
2026-05-07 19:54 39.78765 -8.33483 22597 ft 450 kts 189°
2026-05-07 19:54 39.75750 -8.33936 22230 ft 434 kts 189°
2026-05-07 19:54 39.72760 -8.34397 21866 ft 420 kts 190°
2026-05-07 19:55 39.70043 -8.35369 21516 ft 405 kts 204°
2026-05-07 19:55 39.67678 -8.37235 21163 ft 393 kts 219°
2026-05-07 19:55 39.65835 -8.39795 20811 ft 385 kts 231°
2026-05-07 19:55 39.64229 -8.42517 20462 ft 375 kts 228°
2026-05-07 19:56 39.62375 -8.44814 20125 ft 365 kts 219°
2026-05-07 19:56 39.60462 -8.46926 19784 ft 358 kts 219°
2026-05-07 19:56 39.58583 -8.48994 19448 ft 351 kts 218°
2026-05-07 19:56 39.56731 -8.51024 19119 ft 345 kts 218°
2026-05-07 19:57 39.54909 -8.53012 18789 ft 340 kts 218°
2026-05-07 19:57 39.53110 -8.54971 18466 ft 336 kts 218°
2026-05-07 19:57 39.51333 -8.56903 18127 ft 331 kts 217°
2026-05-07 19:57 39.49580 -8.58810 17730 ft 328 kts 217°
2026-05-07 19:58 39.47844 -8.60702 17322 ft 324 kts 218°
2026-05-07 19:58 39.46128 -8.62571 16924 ft 321 kts 218°
2026-05-07 19:58 39.44425 -8.64421 16538 ft 318 kts 218°
2026-05-07 19:58 39.42736 -8.66254 16154 ft 316 kts 218°
2026-05-07 19:59 39.41057 -8.68074 15776 ft 314 kts 218°
2026-05-07 19:59 39.39389 -8.69884 15401 ft 312 kts 218°
2026-05-07 19:59 39.37734 -8.71682 15032 ft 310 kts 218°
2026-05-07 19:59 39.36087 -8.73469 14677 ft 308 kts 217°
2026-05-07 20:00 39.34445 -8.75246 14322 ft 307 kts 217°
2026-05-07 20:00 39.32813 -8.77014 13966 ft 306 kts 217°
2026-05-07 20:00 39.31186 -8.78776 13595 ft 305 kts 217°
2026-05-07 20:00 39.29567 -8.80531 13197 ft 303 kts 217°
2026-05-07 20:01 39.27956 -8.82275 12803 ft 302 kts 217°
2026-05-07 20:01 39.26350 -8.84008 12403 ft 300 kts 217°
2026-05-07 20:01 39.24751 -8.85731 12024 ft 298 kts 217°
2026-05-07 20:01 39.23184 -8.87420 11645 ft 297 kts 217°
2026-05-07 20:02 39.21604 -8.89122 11269 ft 295 kts 217°
2026-05-07 20:02 39.20038 -8.90808 10974 ft 290 kts 217°
2026-05-07 20:02 39.18520 -8.92446 10940 ft 280 kts 217°
2026-05-07 20:02 39.17034 -8.94045 10948 ft 278 kts 217°
2026-05-07 20:03 39.15552 -8.95638 10946 ft 277 kts 217°
2026-05-07 20:03 39.14072 -8.97226 10946 ft 277 kts 217°
2026-05-07 20:03 39.12592 -8.98813 10946 ft 277 kts 217°
2026-05-07 20:03 39.11112 -9.00403 10946 ft 277 kts 217°
2026-05-07 20:04 39.09632 -9.01993 10947 ft 277 kts 217°
2026-05-07 20:04 39.08151 -9.03581 10947 ft 277 kts 217°
2026-05-07 20:04 39.06669 -9.05166 10946 ft 277 kts 217°
2026-05-07 20:04 39.05186 -9.06755 10948 ft 277 kts 217°
2026-05-07 20:05 39.03707 -9.08340 10952 ft 277 kts 217°
2026-05-07 20:05 39.02225 -9.09927 10961 ft 276 kts 217°
2026-05-07 20:05 39.00749 -9.11507 10959 ft 276 kts 217°
2026-05-07 20:05 38.99276 -9.13086 10953 ft 276 kts 217°
2026-05-07 20:06 38.97803 -9.14665 10829 ft 276 kts 217°
2026-05-07 20:06 38.96331 -9.16241 10599 ft 274 kts 217°
2026-05-07 20:06 38.94865 -9.17806 10345 ft 274 kts 217°
2026-05-07 20:06 38.93405 -9.19362 10100 ft 273 kts 217°
2026-05-07 20:07 38.91945 -9.20913 9884 ft 271 kts 217°
2026-05-07 20:07 38.90490 -9.22462 9756 ft 272 kts 217°
2026-05-07 20:07 38.89038 -9.24012 9627 ft 271 kts 218°
2026-05-07 20:07 38.87585 -9.25558 9492 ft 271 kts 218°
2026-05-07 20:08 38.86137 -9.27098 9356 ft 270 kts 218°
2026-05-07 20:08 38.84686 -9.28638 9223 ft 270 kts 218°
2026-05-07 20:08 38.83240 -9.30170 9092 ft 270 kts 218°
2026-05-07 20:08 38.81793 -9.31704 8957 ft 270 kts 218°
2026-05-07 20:09 38.80349 -9.33235 8832 ft 269 kts 218°
2026-05-07 20:09 38.78908 -9.34764 8686 ft 269 kts 218°
2026-05-07 20:09 38.77469 -9.36293 8560 ft 268 kts 218°
2026-05-07 20:10 38.74594 -9.39335 8311 ft 268 kts 218°
2026-05-07 20:10 38.73157 -9.40850 8177 ft 267 kts 218°
2026-05-07 20:10 38.71724 -9.42364 8052 ft 267 kts 218°
2026-05-07 20:10 38.70294 -9.43882 7942 ft 266 kts 218°
2026-05-07 20:11 38.68869 -9.45394 7944 ft 267 kts 218°
2026-05-07 20:11 38.67438 -9.46906 7956 ft 267 kts 219°
2026-05-07 20:11 38.66023 -9.48397 7952 ft 257 kts 219°
2026-05-07 20:11 38.64691 -9.49803 7952 ft 240 kts 219°
2026-05-07 20:12 38.63422 -9.51144 7957 ft 235 kts 219°
2026-05-07 20:12 38.62163 -9.52473 7963 ft 234 kts 219°
2026-05-07 20:12 38.60904 -9.53793 7956 ft 234 kts 217°
2026-05-07 20:12 38.59471 -9.54746 7957 ft 234 kts 197°
2026-05-07 20:13 38.57853 -9.54953 7875 ft 238 kts 175°
2026-05-07 20:13 38.56275 -9.54192 7369 ft 249 kts 144°
2026-05-07 20:13 38.55202 -9.52499 7156 ft 247 kts 115°
2026-05-07 20:13 38.54903 -9.50349 6830 ft 250 kts 86°
2026-05-07 20:14 38.55107 -9.48142 6475 ft 251 kts 83°
2026-05-07 20:14 38.55333 -9.45931 6053 ft 253 kts 84°
2026-05-07 20:14 38.55560 -9.43709 5758 ft 250 kts 84°
2026-05-07 20:14 38.55780 -9.41523 5627 ft 248 kts 85°
2026-05-07 20:15 38.55996 -9.39334 5518 ft 249 kts 84°
2026-05-07 20:15 38.56212 -9.37147 5429 ft 248 kts 84°
2026-05-07 20:15 38.56424 -9.34968 5330 ft 248 kts 84°
2026-05-07 20:15 38.56636 -9.32780 5236 ft 249 kts 84°
2026-05-07 20:16 38.56996 -9.30624 5098 ft 249 kts 69°
2026-05-07 20:16 38.57644 -9.28563 4720 ft 250 kts 67°
2026-05-07 20:16 38.58308 -9.26516 4383 ft 249 kts 66°
2026-05-07 20:16 38.59049 -9.24538 4073 ft 243 kts 51°
2026-05-07 20:17 38.60282 -9.23149 3821 ft 234 kts 25°
2026-05-07 20:17 38.61723 -9.22311 3546 ft 230 kts 19°
2026-05-07 20:17 38.63207 -9.21548 3247 ft 230 kts 19°
2026-05-07 20:17 38.64690 -9.20769 2928 ft 231 kts 20°
2026-05-07 20:18 38.66150 -9.19991 2609 ft 222 kts 19°
2026-05-07 20:18 38.67554 -9.19241 2308 ft 210 kts 19°
2026-05-07 20:18 38.68872 -9.18538 2022 ft 199 kts 19°
2026-05-07 20:18 38.70087 -9.17890 1794 ft 185 kts 19°
2026-05-07 20:19 38.71221 -9.17284 1551 ft 167 kts 17°
2026-05-07 20:19 38.72240 -9.16738 1313 ft 149 kts 18°
2026-05-07 20:19 38.73154 -9.16251 1104 ft 141 kts 20°
2026-05-07 20:19 38.74068 -9.15765 920 ft 139 kts 19°
2026-05-07 20:20 38.74964 -9.15293 719 ft 141 kts 19°
2026-05-07 20:20 38.75849 -9.14811 553 ft 142 kts 19°
2026-05-07 20:20 38.76738 -9.14334 366 ft 139 kts 18°
2026-05-07 20:20 38.77528 -9.13921 365 ft 100 kts 22°
2026-05-07 20:21 38.78059 -9.13639 368 ft 70 kts 23°
2026-05-07 20:21 38.78331 -9.13456 364 ft 20 kts 65°
2026-05-07 20:21 38.78354 -9.13381 365 ft 0 kts 56°
2026-05-07 20:22 38.78357 -9.13374 368 ft 4 kts 56°
2026-05-07 20:22 38.78378 -9.13315 362 ft 8 kts 86°
2026-05-07 20:22 38.78338 -9.13265 360 ft 9 kts 172°
2026-05-07 20:23 38.78271 -9.13290 363 ft 13 kts 201°
2026-05-07 20:23 38.78166 -9.13344 362 ft 18 kts 201°
2026-05-07 20:23 38.78042 -9.13404 358 ft 20 kts 192°
2026-05-07 20:23 38.77885 -9.13378 349 ft 26 kts 167°
2026-05-07 20:24 38.77692 -9.13326 337 ft 32 kts 170°
2026-05-07 20:24 38.77480 -9.13293 334 ft 28 kts 166°
2026-05-07 20:24 38.77319 -9.13253 338 ft 20 kts 171°
2026-05-07 20:24 38.77263 -9.13240 338 ft 0 kts 168°
2026-05-07 20:25 38.77256 -9.13234 338 ft 6 kts 145°
2026-05-07 20:26 38.77250 -9.13175 333 ft 4 kts 77°
2026-05-07 20:26 38.77251 -9.13172 334 ft 1 kts 78°
2026-05-07 20:26 38.77255 -9.13150 336 ft 0 kts 76°
2026-05-07 20:26 38.77255 -9.13149 336 ft 0 kts 76°
2026-05-07 20:34 38.77255 -9.13150 336 ft 0 kts 76°